Hourly Weather Lubartów

Today, 6 August, Thursday

Time Temperature Precipitation Wind Pressure Humidity
00:00 +18°C° 0 mm 3 mps 752 mmHg 75%
01:00 +18°C° 0 mm 3 mps 753 mmHg 78%
02:00 +18°C° 0 mm 3 mps 753 mmHg 80%
03:00 +18°C° 0 mm 3 mps 753 mmHg 81%
04:00 +18°C° 0 mm 3 mps 753 mmHg 83%
05:00 +17°C° 0 mm 3 mps 753 mmHg 84%
06:00 +18°C° 0 mm 3 mps 753 mmHg 83%
07:00 +19°C° 0 mm 4 mps 753 mmHg 82%
08:00 +20°C° 0 mm 4 mps 753 mmHg 82%
09:00 +22°C° 0 mm 4 mps 754 mmHg 77%
10:00 +25°C° 0 mm 4 mps 754 mmHg 73%
11:00 +26°C° 0 mm 4 mps 754 mmHg 68%
12:00 +27°C° 0 mm 4 mps 754 mmHg 65%
13:00 +28°C° 0 mm 4 mps 754 mmHg 62%
14:00 +29°C° 0 mm 4 mps 754 mmHg 59%
15:00 +29°C° 0.1 mm 4 mps 754 mmHg 60%
16:00 +29°C° 0.1 mm 4 mps 754 mmHg 62%
17:00 +29°C° 0.1 mm 3 mps 754 mmHg 63%
18:00 +27°C° 0.1 mm 4 mps 754 mmHg 70%
19:00 +25°C° 0.1 mm 4 mps 754 mmHg 77%
20:00 +23°C° 0.1 mm 4 mps 754 mmHg 84%
21:00 +22°C° 0 mm 4 mps 754 mmHg 87%
22:00 +21°C° 0 mm 3 mps 754 mmHg 89%
23:00 +20°C° 0 mm 3 mps 755 mmHg 92%

Tomorrow, 7 August, Friday

Time Temperature Precipitation Wind Pressure Humidity
00:00 +20°C° 0 mm 3 mps 755 mmHg 92%
01:00 +20°C° 0 mm 3 mps 755 mmHg 92%
02:00 +20°C° 0 mm 3 mps 755 mmHg 92%
03:00 +20°C° 0 mm 3 mps 755 mmHg 93%
04:00 +19°C° 0 mm 3 mps 755 mmHg 94%
05:00 +18°C° 0 mm 3 mps 755 mmHg 95%
06:00 +20°C° 0 mm 3 mps 755 mmHg 91%
07:00 +21°C° 0 mm 3 mps 755 mmHg 88%
08:00 +22°C° 0 mm 3 mps 756 mmHg 84%
09:00 +25°C° 0.1 mm 4 mps 756 mmHg 79%
10:00 +26°C° 0.1 mm 4 mps 756 mmHg 73%
11:00 +28°C° 0.1 mm 4 mps 756 mmHg 67%
12:00 +28°C° 0.5 mm 4 mps 756 mmHg 65%
13:00 +29°C° 0.5 mm 4 mps 755 mmHg 63%
14:00 +29°C° 0.5 mm 4 mps 755 mmHg 61%
15:00 +29°C° 0.3 mm 4 mps 755 mmHg 62%
16:00 +29°C° 0.3 mm 4 mps 755 mmHg 63%
17:00 +29°C° 0.3 mm 4 mps 755 mmHg 64%
18:00 +27°C° 0 mm 4 mps 755 mmHg 68%
19:00 +25°C° 0 mm 4 mps 755 mmHg 73%
20:00 +24°C° 0 mm 3 mps 754 mmHg 78%
21:00 +22°C° 0 mm 3 mps 755 mmHg 79%
22:00 +21°C° 0 mm 3 mps 755 mmHg 80%
23:00 +20°C° 0 mm 3 mps 755 mmHg 81%

Day after tomorrow, 8 August, Saturday

Time Temperature Precipitation Wind Pressure Humidity
00:00 +20°C° 0 mm 3 mps 755 mmHg 82%
01:00 +19°C° 0 mm 3 mps 755 mmHg 83%
02:00 +19°C° 0 mm 3 mps 755 mmHg 84%
03:00 +18°C° 0 mm 3 mps 755 mmHg 85%
04:00 +18°C° 0 mm 3 mps 755 mmHg 87%
05:00 +18°C° 0 mm 3 mps 755 mmHg 88%
06:00 +19°C° 0 mm 3 mps 755 mmHg 84%
07:00 +20°C° 0 mm 3 mps 755 mmHg 81%
08:00 +21°C° 0 mm 3 mps 755 mmHg 77%
09:00 +24°C° 0 mm 3 mps 755 mmHg 71%
10:00 +25°C° 0 mm 4 mps 755 mmHg 65%
11:00 +27°C° 0 mm 4 mps 755 mmHg 59%
12:00 +28°C° 0 mm 4 mps 755 mmHg 57%
13:00 +28°C° 0 mm 4 mps 754 mmHg 55%
14:00 +29°C° 0 mm 4 mps 754 mmHg 54%
15:00 +29°C° 0 mm 3 mps 754 mmHg 54%
16:00 +29°C° 0 mm 3 mps 753 mmHg 55%
17:00 +28°C° 0 mm 3 mps 753 mmHg 56%
18:00 +27°C° 0 mm 3 mps 753 mmHg 62%
19:00 +25°C° 0 mm 2 mps 753 mmHg 67%
20:00 +24°C° 0 mm 2 mps 753 mmHg 73%
21:00 +23°C° 0 mm 2 mps 753 mmHg 76%
22:00 +22°C° 0 mm 1 mps 753 mmHg 79%
23:00 +21°C° 0 mm 1 mps 753 mmHg 81%

9 August, Sunday

Time Temperature Precipitation Wind Pressure Humidity
00:00 +21°C° 0 mm 1 mps 753 mmHg 83%
01:00 +20°C° 0 mm 1 mps 753 mmHg 85%
02:00 +20°C° 0 mm 1 mps 753 mmHg 86%
03:00 +20°C° 0 mm 1 mps 752 mmHg 87%
04:00 +19°C° 0 mm 1 mps 752 mmHg 89%
05:00 +19°C° 0 mm 1 mps 752 mmHg 90%
06:00 +21°C° 0 mm 1 mps 752 mmHg 85%
07:00 +22°C° 0 mm 1 mps 752 mmHg 80%
08:00 +23°C° 0 mm 1 mps 752 mmHg 75%
09:00 +25°C° 0 mm 1 mps 752 mmHg 69%
10:00 +26°C° 0 mm 1 mps 752 mmHg 64%
11:00 +28°C° 0 mm 1 mps 752 mmHg 59%
12:00 +28°C° 0.6 mm 2 mps 752 mmHg 59%
13:00 +28°C° 0.6 mm 2 mps 752 mmHg 58%
14:00 +28°C° 0.6 mm 2 mps 752 mmHg 58%
15:00 +28°C° 0.4 mm 2 mps 751 mmHg 58%
16:00 +28°C° 0.4 mm 2 mps 751 mmHg 57%
17:00 +28°C° 0.4 mm 1 mps 751 mmHg 57%
18:00 +27°C° 0.1 mm 1 mps 751 mmHg 63%
19:00 +25°C° 0.1 mm 1 mps 751 mmHg 68%
20:00 +24°C° 0.1 mm 1 mps 751 mmHg 74%
21:00 +23°C° 0.4 mm 1 mps 751 mmHg 77%
22:00 +22°C° 0.4 mm 1 mps 751 mmHg 81%
23:00 +21°C° 0.4 mm 1 mps 751 mmHg 84%

10 August, Monday

Time Temperature Precipitation Wind Pressure Humidity
00:00 +21°C° 0.4 mm 1 mps 751 mmHg 86%
01:00 +20°C° 0.4 mm 1 mps 751 mmHg 88%
02:00 +20°C° 0.4 mm 1 mps 751 mmHg 89%
03:00 +20°C° 0 mm 1 mps 751 mmHg 90%
04:00 +19°C° 0 mm 1 mps 751 mmHg 91%
05:00 +19°C° 0 mm 1 mps 751 mmHg 92%
06:00 +20°C° 0 mm 1 mps 751 mmHg 89%
07:00 +20°C° 0 mm 2 mps 751 mmHg 85%
08:00 +23°C° 0 mm 2 mps 751 mmHg 81%
09:00 +24°C° 0.2 mm 2 mps 751 mmHg 75%
10:00 +25°C° 0.2 mm 2 mps 751 mmHg 69%
11:00 +27°C° 0.2 mm 2 mps 751 mmHg 63%
12:00 +27°C° 0.3 mm 2 mps 751 mmHg 60%
13:00 +28°C° 0.3 mm 2 mps 751 mmHg 57%
14:00 +29°C° 0.3 mm 2 mps 750 mmHg 53%
15:00 +29°C° 0.1 mm 2 mps 750 mmHg 54%
16:00 +29°C° 0.1 mm 2 mps 750 mmHg 54%
17:00 +29°C° 0.1 mm 2 mps 750 mmHg 55%
18:00 +27°C° 0.1 mm 2 mps 750 mmHg 61%
19:00 +25°C° 0.1 mm 2 mps 750 mmHg 67%
20:00 +24°C° 0.1 mm 2 mps 750 mmHg 73%
21:00 +23°C° 0 mm 2 mps 750 mmHg 76%
22:00 +22°C° 0 mm 1 mps 750 mmHg 78%
23:00 +21°C° 0 mm 1 mps 751 mmHg 81%

11 August, Tuesday

Time Temperature Precipitation Wind Pressure Humidity
00:00 +21°C° 0 mm 1 mps 751 mmHg 83%
01:00 +21°C° 0 mm 1 mps 751 mmHg 85%
02:00 +20°C° 0 mm 1 mps 751 mmHg 87%
03:00 +20°C° 0 mm 1 mps 751 mmHg 88%
04:00 +20°C° 0 mm 1 mps 751 mmHg 89%
05:00 +19°C° 0 mm 1 mps 751 mmHg 90%
06:00 +21°C° 0 mm 1 mps 751 mmHg 85%
07:00 +22°C° 0 mm 1 mps 751 mmHg 81%
08:00 +24°C° 0 mm 1 mps 751 mmHg 76%
09:00 +25°C° 0.3 mm 1 mps 751 mmHg 70%
10:00 +26°C° 0.3 mm 2 mps 751 mmHg 65%
11:00 +28°C° 0.3 mm 2 mps 751 mmHg 59%
12:00 +28°C° 0.3 mm 2 mps 751 mmHg 56%
13:00 +29°C° 0.3 mm 2 mps 751 mmHg 53%
14:00 +29°C° 0.3 mm 1 mps 751 mmHg 50%
15:00 +29°C° 0 mm 1 mps 750 mmHg 50%
16:00 +29°C° 0 mm 1 mps 750 mmHg 51%
17:00 +29°C° 0 mm 1 mps 750 mmHg 51%
18:00 +28°C° 0 mm 1 mps 750 mmHg 57%
19:00 +26°C° 0 mm 1 mps 750 mmHg 62%
20:00 +24°C° 0 mm 1 mps 750 mmHg 68%
21:00 +24°C° 0 mm 1 mps 750 mmHg 70%
22:00 +23°C° 0 mm 1 mps 750 mmHg 71%
23:00 +22°C° 0 mm 1 mps 750 mmHg 73%
Show more